Location: Santa Maria di Sala
(45.5070°N, 12.0300°E)
Time: 07:11:36
(UTC+02:00)

STRAND 1 - Pass Details

Date: 03 March 2024
Orbit: 764 x 779 km, 98.4° (Epoch: 16 April)

Event Time Altitude Azimuth Distance (km) Brightness Sun altitude
Rises 20:18:24 0° 359° (N) 3,263 ? -24.5°
Reaches altitude 10° 20:21:25 10° 341° (NNW) 2,328 ? -25.0°
Maximum altitude 20:24:43 18° 301° (WNW) 1,852 ? -25.5°
Drops below altitude 10° 20:27:59 10° 261° (W) 2,312 ? -26.0°
Sets 20:30:59 0° 242° (WSW) 3,231 ? -26.5°
